Time,TemperatureF,DewpointF,PressureIn,WindDirection,WindDirectionDegrees,WindSpeedMPH,WindSpeedGustMPH,Humidity,HourlyPrecipIn,Conditions,Clouds,dailyrainin,SoftwareType,DateUTC
2013-01-19 00:05:00,64.0,59.4,30.28,East,90,0.0,16.0,85,0.01,,,0.00,Weather View 32 v70,2013-01-19 05:05:00,
2013-01-19 00:10:00,64.0,59.1,30.28,NE,45,0.0,16.0,84,0.00,,,0.00,Weather View 32 v70,2013-01-19 05:10:00,
2013-01-19 00:15:00,64.0,59.4,30.28,NE,45,1.0,16.0,85,0.00,,,0.00,Weather View 32 v70,2013-01-19 05:15:00,
2013-01-19 00:20:00,65.0,59.7,30.27,East,90,3.0,13.0,83,0.00,,,0.00,Weather View 32 v70,2013-01-19 05:20:00,
2013-01-19 00:25:00,65.0,60.0,30.27,NW,315,0.0,13.0,84,0.00,,,0.00,Weather View 32 v70,2013-01-19 05:25:00,
2013-01-19 00:30:00,65.0,59.7,30.27,East,90,2.0,13.0,83,0.00,,,0.00,Weather View 32 v70,2013-01-19 05:30:00,
2013-01-19 00:40:00,65.0,61.3,30.27,NE,45,0.0,15.0,88,0.01,,,0.01,Weather View 32 v70,2013-01-19 05:40:00,
2013-01-19 00:45:00,64.0,60.7,30.27,East,90,1.0,15.0,89,0.01,,,0.01,Weather View 32 v70,2013-01-19 05:45:00,
2013-01-19 00:48:00,64.0,60.7,30.27,East,90,1.0,15.0,89,0.01,,,0.01,Weather View 32 v70,2013-01-19 05:48:00,
2013-01-19 00:50:00,64.0,61.3,30.27,East,90,1.0,15.0,91,0.01,,,0.01,Weather View 32 v70,2013-01-19 05:50:00,
2013-01-19 00:55:00,63.0,60.0,30.27,East,90,3.0,15.0,90,0.01,,,0.01,Weather View 32 v70,2013-01-19 05:55:00,
2013-01-19 01:00:00,64.0,61.0,30.27,ENE,67,7.0,15.0,90,0.01,,,0.01,Weather View 32 v70,2013-01-19 06:00:00,
2013-01-19 01:05:00,64.0,60.7,30.27,ENE,67,2.0,15.0,89,0.01,,,0.01,Weather View 32 v70,2013-01-19 06:05:00,
2013-01-19 01:10:00,64.0,60.4,30.27,East,90,0.0,15.0,88,0.01,,,0.01,Weather View 32 v70,2013-01-19 06:10:00,
2013-01-19 01:15:00,64.0,59.7,30.27,ENE,67,6.0,15.0,86,0.01,,,0.01,Weather View 32 v70,2013-01-19 06:15:00,
2013-01-19 01:20:00,65.0,60.0,30.27,East,90,4.0,15.0,84,0.01,,,0.01,Weather View 32 v70,2013-01-19 06:20:00,
2013-01-19 01:30:00,65.0,58.7,30.26,East,90,5.0,15.0,80,0.01,,,0.01,Weather View 32 v70,2013-01-19 06:30:00,
2013-01-19 01:35:00,66.0,58.9,30.26,NE,45,1.0,15.0,78,0.01,,,0.01,Weather View 32 v70,2013-01-19 06:35:00,
2013-01-19 01:40:00,66.0,59.3,30.26,ENE,67,1.0,15.0,79,0.00,,,0.01,Weather View 32 v70,2013-01-19 06:40:00,
2013-01-19 01:45:00,66.0,58.6,30.26,East,90,1.0,15.0,77,0.00,,,0.01,Weather View 32 v70,2013-01-19 06:45:00,
2013-01-19 01:50:00,66.0,58.6,30.26,East,90,2.0,10.0,77,0.00,,,0.01,Weather View 32 v70,2013-01-19 06:50:00,
2013-01-19 01:55:00,66.0,58.6,30.26,East,90,2.0,10.0,77,0.00,,,0.01,Weather View 32 v70,2013-01-19 06:55:00,
2013-01-19 02:00:00,66.0,58.6,30.25,East,90,6.0,10.0,77,0.00,,,0.01,Weather View 32 v70,2013-01-19 07:00:00,
2013-01-19 02:05:00,66.0,58.9,30.25,East,90,4.0,10.0,78,0.00,,,0.01,Weather View 32 v70,2013-01-19 07:05:00,
2013-01-19 02:10:00,67.0,59.5,30.25,ENE,67,3.0,11.0,77,0.00,,,0.01,Weather View 32 v70,2013-01-19 07:10:00,
2013-01-19 02:15:00,67.0,59.9,30.25,East,90,1.0,11.0,78,0.00,,,0.01,Weather View 32 v70,2013-01-19 07:15:00,
2013-01-19 02:20:00,67.0,59.5,30.24,East,90,5.0,11.0,77,0.00,,,0.01,Weather View 32 v70,2013-01-19 07:20:00,
2013-01-19 02:25:00,67.0,58.8,30.24,East,90,4.0,12.0,75,0.00,,,0.01,Weather View 32 v70,2013-01-19 07:25:00,
2013-01-19 02:30:00,67.0,58.4,30.24,East,90,6.0,12.0,74,0.00,,,0.01,Weather View 32 v70,2013-01-19 07:30:00,
2013-01-19 02:35:00,67.0,59.5,30.24,East,90,1.0,12.0,77,0.00,,,0.01,Weather View 32 v70,2013-01-19 07:35:00,
2013-01-19 02:40:00,67.0,58.8,30.24,ENE,67,4.0,12.0,75,0.00,,,0.01,Weather View 32 v70,2013-01-19 07:40:00,
2013-01-19 02:45:00,67.0,58.8,30.24,East,90,3.0,12.0,75,0.00,,,0.01,Weather View 32 v70,2013-01-19 07:45:00,
2013-01-19 02:49:00,67.0,58.8,30.24,East,90,3.0,12.0,75,0.00,,,0.01,Weather View 32 v70,2013-01-19 07:49:00,
2013-01-19 02:50:00,67.0,58.4,30.24,East,90,4.0,12.0,74,0.00,,,0.01,Weather View 32 v70,2013-01-19 07:50:00,
2013-01-19 02:55:00,67.0,59.2,30.24,East,90,1.0,12.0,76,0.00,,,0.01,Weather View 32 v70,2013-01-19 07:55:00,
2013-01-19 03:00:00,67.0,58.4,30.24,East,90,7.0,12.0,74,0.00,,,0.01,Weather View 32 v70,2013-01-19 08:00:00,
2013-01-19 03:05:00,67.0,59.2,30.24,WSW,247,4.0,12.0,76,0.00,,,0.01,Weather View 32 v70,2013-01-19 08:05:00,
2013-01-19 03:10:00,67.0,59.5,30.24,East,90,3.0,12.0,77,0.00,,,0.01,Weather View 32 v70,2013-01-19 08:10:00,